Regional Weather Roundup
Issued by NWS

Home | Current Version | Previous Version | Graphics & Text | Print | Product List | Glossary On
Versions: 1 2 3 4 5 6 7 8 9 10 11 12 13 14 15 16 17 18 19 20 21 22 23 24 25 26 27 28 29 30 31 32 33 34 35 36 37 38 39 40 41 42 43 44 45 46 47 48 49 50
000
ASUS43 KMKX 012121
RWRWI

WISCONSIN REGIONAL WEATHER ROUNDUP
NATIONAL WEATHER SERVICE MILWAUKEE/SULLIVAN WI
400 PM CDT SAT AUG 01 2015

NOTE: "FAIR" INDICATES FEW OR NO CLOUDS BELOW 12,000 FEET WITH NO
SIGNIFICANT WEATHER AND/OR OBSTRUCTIONS TO VISIBILITY.

WIZ001-002-006>008-014>016-023>028-012200-
NORTHWEST WISCONSIN

CITY           SKY/WX    TMP DP  RH WIND       PRES   REMARKS
SUPERIOR ARPT  SUNNY     82  55  39 W14       29.83S HX  81
ASHLAND        MOSUNNY   82  53  36 SW12      29.84F HX  81
HAYWARD        SUNNY     81  52  36 VRB6      29.88F HX  80
SIREN          MOSUNNY   82  50  33 SW10      29.88F HX  80
CUMBERLAND     SUNNY     77  50  38 W7        29.90F
RICE LAKE      SUNNY     80  53  39 SW8       29.91F HX  80
CHETEK         SUNNY     80  55  41 MISG      29.90F HX  80
LADYSMITH      MOSUNNY   80  52  38 SW10G21   29.92F HX  80
EAU CLAIRE     SUNNY     84  56  38 W9        29.89F HX  83
MENOMONIE      SUNNY     84  55  35 SW8       29.90F HX  83
NEW RICHMOND   MOSUNNY   83  51  32 W6        29.90F HX  82
OSCEOLA        PTSUNNY   81  55  41 W6        29.92F HX  81
$$

WIZ003>005-009-010-017-018-012200-
NORTH CENTRAL WISCONSIN

CITY           SKY/WX    TMP DP  RH WIND       PRES   REMARKS
MANITOWISH WTR MOSUNNY   77  50  38 W9G17     29.88F
ARBOR VITAE    MOSUNNY   77  52  41 W9G16     29.88F
WOODRUFF       MOSUNNY   77  52  41 W9G16     29.88F
RHINELANDER    PTSUNNY   79  50  36 W15       29.90F
EAGLE RIVER    MOSUNNY   75  47  36 NW8       29.88F
LAND O LAKES   MOSUNNY   78  46  32 NW12      29.88F
PHILLIPS       MOSUNNY   77  53  42 W8G21     29.89F
TOMAHAWK       MOSUNNY   76  49  38 W12       29.91S
MEDFORD        MOSUNNY   76  53  43 W10G17    29.92F
MERRILL        NOT AVBL
$$

WIZ029-030-035-036-043>047-012200-
CENTRAL WISCONSIN

CITY           SKY/WX    TMP DP  RH WIND       PRES   REMARKS
WAUSAU         PTSUNNY   82  51  34 W15G22    29.89F HX  81
MOSINEE        MOSUNNY   79  48  34 W17G26    29.92F
MARSHFIELD     SUNNY     81  51  35 W14G21    29.92S HX  80
STEVENS POINT  SUNNY     79  50  35 W7G18     29.91F
WAUPACA        SUNNY     83  47  28 W15       29.90S HX  81
WAUTOMA        SUNNY     86  48  26 W16       29.90F HX  83
WISC RAPIDS    SUNNY     84  48  28 NW14G20   29.92F HX  82
CAMP DOUGLAS   NOT AVBL
$$

WIZ011>013-019>022-031-037>040-048>050-012200-
NORTHEAST WISCONSIN

CITY           SKY/WX    TMP DP  RH WIND       PRES   REMARKS
ANTIGO         PTSUNNY   74  50  42 W10       29.91F
SHAWANO        SUNNY     80  48  32 W7        29.88F HX  80
OCONTO         MOSUNNY   82  50  32 NW10      29.85F HX  81
STURGEON BAY   SUNNY     81  52  36 W13G18    29.87F HX  80
GREEN BAY      MOSUNNY   83  51  33 W10       29.88S HX  81
MANITOWOC      MOSUNNY   82  46  28 MISG      29.88F HX  80
APPLETON       MOSUNNY   81  45  28 NW14G23   29.90F
CLINTONVILLE   MOSUNNY   81  43  26 W13       29.88F
OSHKOSH        MOSUNNY   83  52  34 NW12      29.89F HX  82
$$

WIZ032>034-041-042-053>061-012200-
SOUTHWEST WISCONSIN

CITY           SKY/WX    TMP DP  RH WIND       PRES   REMARKS
LA CROSSE      SUNNY     85  62  46 NW6       29.90F HX  85
SPARTA         SUNNY     85  54  34 W13       29.92F HX  83
VIROQUA        SUNNY     82  63  51 NW8       29.94F HX  83
BOSCOBEL       SUNNY     90  61  37 NW10      29.92F HX  90
PRAIRIE DU CHI SUNNY     89  54  30 W10G17    29.92S HX  86
PLATTEVILLE    MOSUNNY   86  64  48 W9        29.94F HX  87
$$

WIZ056-057-062-063-064-067-068-012200-
SOUTH CENTRAL WISCONSIN

CITY           SKY/WX    TMP DP  RH WIND       PRES   REMARKS
REEDSBURG      MOSUNNY   85  59  41 W14       29.91F HX  84
BARABOO/DELLS  SUNNY     85  52  32 NW10      29.91F HX  83
LONE ROCK      SUNNY     87  60  40 NW10      29.91F HX  87
MINERAL POINT  SUNNY     86  55  35 W8G17     29.94F HX  84
MADISON        MOSUNNY   85  61  44 NW7       29.91S HX  85
MIDDLETON      SUNNY     86  54  33 W12       29.92S HX  85
WATERTOWN      MOSUNNY   82  63  53 W6        29.91S HX  83
MONROE         SUNNY     86  55  35 NW10G23   29.93S HX  84
JANESVILLE     MOSUNNY   88  57  35 NW13      29.91S HX  86
$$

WIZ051-052-058>065-066-070>072-012200-
SOUTHEAST WISCONSIN

CITY           SKY/WX    TMP DP  RH WIND       PRES   REMARKS
MILWAUKEE      PTSUNNY   84  57  39 W8        29.90F HX  83
WAUKESHA       MOSUNNY   81  55  41 W12       29.93F HX  80
MILWAUKEE/TIMM MOSUNNY   81  54  39 W13G20    29.91F HX  80
RACINE         MOSUNNY   84  59  42 VRB7      29.92F HX  84
BURLINGTON     MOSUNNY   83  57  41 W12G22    29.91F HX  82
KENOSHA        MOSUNNY   85  62  46 W9        29.91F HX  85
FOND DU LAC    MOSUNNY   83  55  38 NW9       29.90F HX  82
SHEBOYGAN      MOSUNNY   82  53  36 W9        29.89F HX  81
WEST BEND      MOSUNNY   81  50  34 W6G16     29.91F HX  80
JUNEAU         MOSUNNY   80  60  50 W9        29.93S HX  80
$$

LSZ147-162-012200-
LAKE SUPERIOR

STATION/POSITION TIME  TEMP    WIND        PRES    WAVE
                       AIR SEA DIR/SP/G            HT/PER
                 (UTC) (F)     (DEG/KT/KT) (MB)    (FT/S)
W MID LAKE BUOY  2050   60 54  210/ 12/ 12 1009.0F   2/ 3
DEVILS ISLAND    2100   73     230/ 13/ 16 1009.3F
PORT WING        2000   78     260/ 10/ 14 1010.5F
SAXON HARBOR     2040   78                 1010.2F
$$

LMZ867-665-643>646-012200-
LAKE MICHIGAN

STATION/POSITION TIME  TEMP    WIND        PRES    WAVE
                       AIR SEA DIR/SP/G            HT/PER
                 (UTC) (F)     (DEG/KT/KT) (MB)    (FT/S)
CHAMBERS ISLAND  2000   78     250/  4/ 10 1010.5F
S GREEN BAY BUOY 1900   72 71  260/  6/  8 1013.3F
N MID LAKE BUOY  2050   70 68  200/ 12/ 14 1010.0F   1/ 3
NORTHPORT PIER   2000   78     240/  5/ 15 1010.5F
SISTER BAY       1914   79     280/  8/  9   N/A
ALGOMA LAKESHORE 2012          290/ 11/ 13   N/A
KEWAUNEE LAKESHO 2000   80     280/  9/ 12 1011.2F
SHEBOYGAN LAKESH 2100   80     290/ 15/ 20 1011.9F
PORT WASHINGTON  2000   85     320/  7/ 15 1012.9
ATWATER BUOY     2100   78 67  260/ 12/ 14 1014.0F
MILWAUKEE LAKESH 2100   80     290/  9/ 12   N/A
KENOSHA   LAKESH 2100   74     130/  8/ 12 1012.5S
$$

TC  - TEMPERATURE IN CELSIUS
VSB - VISIBILITY IN STATUTE MILES
WCI - WIND CHILL INDEX
HX  - HEAT INDEX



USA.gov is the U.S. government's official web portal to all federal, state and local government web resources and services.